Orbital Elements at Epoch 2459200.5 (2020-Dec-17.0) TDB
Reference: JPL 14 (heliocentric ecliptic J2000)
Element | Value | Uncertainty (1-sigma) | Units |
e | .08473367280477619 | 4.9e-08 | |
a | 3.099020150604139 | 2.3971e-08 | au |
q | 2.83642879114744 | 1.5562e-07 | au |
i | 3.821507376128469 | 4.7202e-06 | deg |
node | 126.8326495865514 | 8.3672e-05 | deg |
peri | 273.4101804837286 | 8.9398e-05 | deg |
M | 210.2908807012435 | 3.4638e-05 | deg |
tp | 2460029.168407310006 (2023-Mar-25.66840731) | 0.00019731 | TDB |
period | 1992.668369361518 5.46 | 2.312e-05 6.33e-08 | d yr |
n | .1806622745335941 | 2.0961e-09 | deg/d |
Q | 3.361611510060838 | 2.6002e-08 | au |
|
| | Orbit Determination Parameters
Additional Information
|